Location: Bittelbronn
(48.4454°N, 8.5870°E)
Time: 16:36:06
(UTC+00:00)

NOSS 3-4 (A) - Pass Details

Date: 23 May 2024
Orbit: 801 x 1410 km, 63.4° (Epoch: 04 June)

Event Time Altitude Azimuth Distance (km) Brightness Sun altitude
Rises 00:33:57 0° 315° (NW) 3,786 7.0 -19.1°
Reaches altitude 10° 00:36:31 10° 310° (NW) 2,916 6.2 -19.0°
Maximum altitude 00:43:07 46° 240° (WSW) 1,563 4.2 -18.6°
Enters shadow 00:47:12 26° 184° (S) 2,267 4.8 -18.4°
